This is the latest recevied weather packets stored in our database for station/object KC1DMA. If no packets are shown the sender has not sent any weather packets the latest 1 day(s).
| Time | Temp. | Humidity | Pressure | Rain* | Wind** | Luminosity | Snow |
|---|---|---|---|---|---|---|---|
| 1778037656 | 16.11° C | 74% | 1012.9 hPa | - | 2.24 m/s, 177° | 0 W/m² | - |
| 1778037353 | 16.11° C | 74% | 1013 hPa | - | 1.34 m/s, 125° | 0 W/m² | - |
| 1778037050 | 16.11° C | 73% | 1013 hPa | - | 2.68 m/s, 178° | 0 W/m² | - |
| 1778036748 | 16.11° C | 72% | 1013.1 hPa | - | 1.79 m/s, 113° | 0 W/m² | - |
| 1778036445 | 16.11° C | 72% | 1012.8 hPa | - | 5.36 m/s, 135° | 0 W/m² | - |
| 1778036142 | 16.67° C | 71% | 1012.8 hPa | - | 2.68 m/s, 121° | 0 W/m² | - |
| 1778035838 | 16.67° C | 71% | 1013 hPa | - | 1.79 m/s, 178° | 0 W/m² | - |
| 1778035535 | 16.67° C | 71% | 1012.7 hPa | - | 0.89 m/s, 141° | 0 W/m² | - |
| 1778035231 | 16.67° C | 71% | 1012.8 hPa | - | 1.34 m/s, 131° | 0 W/m² | - |
| 1778034928 | 16.67° C | 70% | 1012.6 hPa | - | 1.34 m/s, 135° | 0 W/m² | - |
| 1778034635 | 16.67° C | 71% | 1012.9 hPa | - | 1.34 m/s, 218° | 0 W/m² | - |
| 1778034323 | 16.67° C | 70% | 1012.7 hPa | - | 1.34 m/s, 117° | 0 W/m² | - |
| 1778034020 | 16.67° C | 70% | 1012.8 hPa | - | 1.79 m/s, 71° | 0 W/m² | - |
| 1778033717 | 16.67° C | 70% | 1012.6 hPa | - | 1.79 m/s, 133° | 0 W/m² | - |
| 1778033415 | 16.67° C | 71% | 1012.5 hPa | - | 4.02 m/s, 134° | 0 W/m² | - |
| 1778033112 | 16.67° C | 71% | 1012.7 hPa | - | 0.45 m/s, 162° | 0 W/m² | - |
| 1778032810 | 16.11° C | 71% | 1012.7 hPa | - | 1.79 m/s, 79° | 0 W/m² | - |
| 1778032507 | 16.11° C | 71% | 1012.7 hPa | - | 0.89 m/s, 195° | 0 W/m² | - |
| 1778032203 | 16.11° C | 71% | 1012.6 hPa | - | 1.34 m/s, 15° | 0 W/m² | - |
| 1778031901 | 16.11° C | 70% | 1012.6 hPa | - | 4.47 m/s, 115° | 0 W/m² | - |
| 1778031597 | 16.11° C | 71% | 1012.5 hPa | - | 2.24 m/s, 168° | 0 W/m² | - |
| 1778031295 | 16.67° C | 70% | 1012.6 hPa | - | 3.13 m/s, 111° | 0 W/m² | - |
| 1778030990 | 16.67° C | 70% | 1012.5 hPa | - | 2.24 m/s, 125° | 0 W/m² | - |
| 1778030687 | 16.67° C | 70% | 1012.3 hPa | - | 0.89 m/s, 78° | 0 W/m² | - |
| 1778030384 | 16.67° C | 69% | 1012.4 hPa | - | 2.24 m/s, 181° | 0 W/m² | - |
* Rain since midnight (hover to see other rain measurements)
** Current wind speed in m/s (hover to see current wind gust speed)